Inquirer Daily News

Weather

Get conditions and forecasts for any City, State, ZIP code or Country:  
Northeast Philadelphia, PA
on Thursday, January 3, 2013

Thursday
Previous Day Next Day
Daily Summary
 ActualAverage (KTTN)Record (KTTN)
Temperature
Mean Temperature °F 31°F  
Max Temperature 34°F 39°F 63°F (2000)
Min Temperature 23°F 23°F -4°F (1879)
Degree Days
Heating Degree Days 36 34  
Month to date heating degree days 101  
Since 1 July heating degree days 1996  
Cooling Degree Days 0 0  
Month to date cooling degree days 0  
Year to date cooling degree days 0  
Moisture
Dew Point 14°F   
Average Humidity 54    
Maximum Humidity 68    
Minimum Humidity 41    
Precipitation
Precipitation 0.00 in 0.11 in 1.95 in (1999)
Month to date precipitation 0.33  
Year to date precipitation 0.33  
Wind
Wind Speed 7 mph   
Max Wind Speed 13 mph   
Max Gust Speed mph   
Visibility 9 miles   
Events     

Key: T is trace of precipitation, MM is missing value
Source: NWS Daily Summary
Time(EST)TemperatureDew PointHumidity Pressure Visibility Wind DirectionWind SpeedGust SpeedPrecipitationEvents Conditions
12:54 AM 26.1°F 14.0°F 60% 30.22 in 10.0 miles WNW 6.9 mph - N/A   Clear
1:54 AM 27.0°F 14.0°F 58% 30.23 in 10.0 miles WNW 8.1 mph - N/A   Clear
2:54 AM 27.0°F 14.0°F 58% 30.23 in 10.0 miles NW 6.9 mph - N/A   Clear
3:54 AM 26.1°F 14.0°F 60% 30.22 in 10.0 miles NW 6.9 mph - N/A   Clear
4:54 AM 25.0°F 14.0°F 63% 30.22 in 10.0 miles NW 4.6 mph - N/A   Clear
5:54 AM 25.0°F 14.0°F 63% 30.22 in 10.0 miles NW 4.6 mph - N/A   Clear
6:54 AM 24.1°F 14.0°F 65% 30.23 in 10.0 miles WNW 3.5 mph - N/A   Clear
7:54 AM 23.0°F 14.0°F 68% 30.22 in 10.0 miles West 4.6 mph - N/A   Clear
8:54 AM 27.0°F 14.0°F 58% 30.24 in 10.0 miles NW 6.9 mph - N/A   Clear
9:54 AM 28.9°F 14.0°F 54% 30.24 in 10.0 miles WNW 6.9 mph - N/A   Clear
10:54 AM 30.0°F 14.0°F 51% 30.22 in 10.0 miles Variable 4.6 mph - N/A   Clear
11:54 AM 30.9°F 15.1°F 52% 30.19 in 10.0 miles West 8.1 mph - N/A   Clear
12:54 PM 32.0°F 14.0°F 48% 30.16 in 10.0 miles West 6.9 mph - N/A   Clear
1:33 PM 33.8°F 12.2°F 41% 30.14 in 1.8 miles NW 11.5 mph - N/A   Haze
1:35 PM 33.8°F 12.2°F 41% 30.14 in 1.5 miles WNW 11.5 mph - N/A   Haze
1:43 PM 33.8°F 12.2°F 41% 30.14 in 10.0 miles West 12.7 mph - N/A   Clear
1:54 PM 33.1°F 12.0°F 42% 30.14 in 10.0 miles WNW 11.5 mph - N/A   Clear
2:54 PM 34.0°F 12.9°F 42% 30.13 in 10.0 miles WNW 9.2 mph - N/A   Clear
3:54 PM 33.1°F 12.9°F 43% 30.13 in 10.0 miles West 10.4 mph - N/A   Clear
4:54 PM 30.9°F 14.0°F 50% 30.15 in 10.0 miles West 9.2 mph - N/A   Partly Cloudy
5:54 PM 30.9°F 16.0°F 54% 30.16 in 10.0 miles WSW 8.1 mph - N/A   Clear
6:54 PM 28.9°F 16.0°F 58% 30.16 in 10.0 miles WSW 8.1 mph - N/A   Clear
7:54 PM 28.9°F 17.1°F 61% 30.16 in 10.0 miles WSW 5.8 mph - N/A   Clear
8:54 PM 28.9°F 17.1°F 61% 30.15 in 10.0 miles WSW 5.8 mph - N/A   Clear
9:54 PM 30.0°F 17.1°F 59% 30.15 in 10.0 miles SW 4.6 mph - N/A   Clear
10:54 PM 28.9°F 17.1°F 61% 30.15 in 10.0 miles SW 5.8 mph - N/A   Partly Cloudy
11:54 PM 30.9°F 18.0°F 59% 30.14 in 10.0 miles WSW 6.9 mph - N/A   Overcast
Astronomy
Sunrise:07:22 AM (EST) Moon Rise:11:20 PM (EST)1/3
Sunset:04:47 PM (EST) Moon Set:10:32 AM (EST)1/3
Moon Phase
Jan. 03 Jan. 04 Jan. 11 Jan. 18 Jan. 26

Copyright © 2014 The Weather Underground, Inc.